TimeEST,TemperatureF,Dew PointF,Humidity,Sea Level PressureIn,VisibilityMPH,Wind Direction,Wind SpeedMPH,Gust SpeedMPH,PrecipitationIn,Events,Conditions,WindDirDegrees,DateUTC
12:40 AM,73.4,71.6,94,29.99,10.0,Variable,3.5,-,N/A,,Mostly Cloudy,0,2013-02-24 05:40:00
12:53 AM,74.7,73.2,95,29.99,10.0,South,3.5,-,N/A,,Mostly Cloudy,170,2013-02-24 05:53:00
1:53 AM,74.5,73.4,96,29.98,10.0,South,4.6,-,N/A,,Mostly Cloudy,190,2013-02-24 06:53:00
2:53 AM,74.7,73.4,96,29.96,10.0,Variable,3.5,-,N/A,,Mostly Cloudy,0,2013-02-24 07:53:00
3:15 AM,75.2,73.4,94,29.96,10.0,Variable,4.6,-,N/A,,Mostly Cloudy,0,2013-02-24 08:15:00
3:53 AM,73.6,73.2,99,29.95,10.0,Calm,Calm,-,N/A,,Scattered Clouds,0,2013-02-24 08:53:00
4:53 AM,73.2,72.7,98,29.96,10.0,South,4.6,-,N/A,,Partly Cloudy,190,2013-02-24 09:53:00
5:53 AM,73.4,73.0,99,29.96,10.0,South,3.5,-,N/A,,Partly Cloudy,190,2013-02-24 10:53:00
6:53 AM,73.4,73.0,99,29.98,8.0,Calm,Calm,-,N/A,,Mostly Cloudy,0,2013-02-24 11:53:00
7:53 AM,73.4,73.0,99,29.99,10.0,South,4.6,-,N/A,,Scattered Clouds,190,2013-02-24 12:53:00
8:24 AM,75.2,73.4,94,29.99,10.0,SSW,4.6,-,N/A,,Scattered Clouds,200,2013-02-24 13:24:00
8:53 AM,75.9,73.0,91,30.00,10.0,South,6.9,-,N/A,,Scattered Clouds,190,2013-02-24 13:53:00
9:53 AM,75.9,73.0,91,30.01,10.0,SSW,4.6,-,N/A,,Scattered Clouds,210,2013-02-24 14:53:00
10:53 AM,82.0,68.0,62,30.01,10.0,Variable,3.5,-,N/A,,Mostly Cloudy,0,2013-02-24 15:53:00
11:53 AM,84.9,66.0,53,29.99,10.0,NW,3.5,-,N/A,,Scattered Clouds,320,2013-02-24 16:53:00
12:53 PM,84.9,64.0,49,29.96,10.0,Variable,6.9,-,N/A,,Mostly Cloudy,0,2013-02-24 17:53:00
1:53 PM,82.0,70.0,67,29.94,10.0,ESE,10.4,-,N/A,,Scattered Clouds,120,2013-02-24 18:53:00
2:53 PM,84.0,70.0,63,29.93,10.0,South,11.5,18.4,N/A,,Scattered Clouds,170,2013-02-24 19:53:00
3:53 PM,82.9,66.9,58,29.91,10.0,South,8.1,18.4,N/A,,Scattered Clouds,180,2013-02-24 20:53:00
4:53 PM,81.0,66.9,62,29.93,10.0,SSE,10.4,-,N/A,,Mostly Cloudy,160,2013-02-24 21:53:00
5:53 PM,80.1,68.0,67,29.93,10.0,Variable,6.9,-,N/A,,Scattered Clouds,0,2013-02-24 22:53:00
6:53 PM,79.0,68.0,69,29.94,10.0,South,9.2,-,N/A,,Scattered Clouds,190,2013-02-24 23:53:00
7:53 PM,79.0,69.1,72,29.95,10.0,South,4.6,-,N/A,,Mostly Cloudy,180,2013-02-25 00:53:00
8:53 PM,78.1,70.0,76,29.96,10.0,Calm,Calm,-,N/A,,Mostly Cloudy,0,2013-02-25 01:53:00
9:53 PM,77.0,69.1,76,29.96,10.0,South,3.5,-,N/A,,Scattered Clouds,190,2013-02-25 02:53:00
10:53 PM,73.9,69.1,85,29.96,10.0,Calm,Calm,-,N/A,,Mostly Cloudy,0,2013-02-25 03:53:00
11:53 PM,73.0,69.1,87,29.94,9.0,Calm,Calm,-,N/A,,Mostly Cloudy,0,2013-02-25 04:53:00